Location: Esp�s Alto
(42.4476°N, 0.5876°E)
Time: 16:14:16
(UTC+00:00)

Cosmos 2333 Rocket - Pass Details

Date: 22 October 2019
Orbit: 838 x 864 km, 70.8° (Epoch: 17 November)

Event Time Altitude Azimuth Distance (km) Brightness Sun altitude
Exits shadow 03:51:35 25° 345° (NNW) 1,666 3.6 -27.7°
Drops below altitude 10° 03:54:27 10° 8° (N) 2,487 4.8 -27.1°
Sets 03:57:11 0° 18° (NNE) 3,431 5.7 -26.7°
